Regional Weather Roundup
Issued by NWS

Home | Current Version | Previous Version | Text Only | Print | Product List | Glossary On
Versions: 1 2 3 4 5 6 7 8 9 10 11 12 13 14 15 16 17 18 19 20 21 22 23 24 25 26 27 28 29 30 31 32 33 34 35 36 37 38 39 40 41 42 43 44 45 46 47 48 49 50
000
ASUS44 KBMX 301610
RWRAL

ALABAMA REGIONAL WEATHER ROUNDUP
NATIONAL WEATHER SERVICE BIRMINGHAM AL
1100 AM CDT TUE SEP 30 2014

NOTE: "FAIR" INDICATES FEW OR NO CLOUDS BELOW 12,000 FEET
WITH NO SIGNIFICANT WEATHER AND/OR OBSTRUCTIONS TO VISIBILITY.

THE REMARK "TC" DENOTES TEMPERATURE IN DEGREES CELSIUS.

ALZ001>011-014-016>018-020-301700-
NORTH ALABAMA

CITY           SKY/WX    TMP DP  RH WIND       PRES   REMARKS
MUSCLE SHOALS  SUNNY     80  64  58 CALM      29.98S
HUNTSVILLE     PTSUNNY   73  64  73 CALM      29.98F
DECATUR        MOSUNNY   73  64  73 E3        29.98F
HALEYVILLE     FAIR      80  66  62 CALM      30.01S
GADSDEN        CLOUDY    72  61  68 CALM      29.98F
$$

ALZ012-013-022-023-030>036-040>044-301700-
WEST CENTRAL ALABAMA

CITY           SKY/WX    TMP DP  RH WIND       PRES   REMARKS
TUSCALOOSA     SUNNY     79  64  60 CALM      29.97S
$$

ALZ015-024>027-033>036-040>044-301700-
CENTRAL ALABAMA

CITY           SKY/WX    TMP DP  RH WIND       PRES   REMARKS
BIRMINGHAM     PTSUNNY   73  63  70 E6        30.00S
MONTGOMERY     CLOUDY    74  66  76 E5        29.96S
SHELBY CO ARPT CLOUDY    72  64  76 E3        29.98S
MAXWELL AFB    CLOUDY    75  66  73 NE5       29.95F
GREENVILLE     CLOUDY    75  65  70 E5        29.95S
$$

ALZ019-021-028-029-037-038-045>048-301700-
EAST CENTRAL ALABAMA

CITY           SKY/WX    TMP DP  RH WIND       PRES   REMARKS
ANNISTON       MOSUNNY   76  63  64 E5        29.97F
ALEXANDER CITY MOSUNNY   75  67  76 E5        29.97S
AUBURN         PTSUNNY   72  63  73 E5        29.99S
$$

ALZ051>064-301700-
SOUTHWEST ALABAMA

CITY           SKY/WX    TMP DP  RH WIND       PRES   REMARKS
MOBILE         CLOUDY    72  70  93 E5        29.94S FOG
BROOKLEY FIELD CLOUDY    75  70  84 NE5       29.95S
EVERGREEN      CLOUDY    75  68  78 NE5       29.95S
$$

ALZ049-050-065>069-301700-
SOUTHEAST ALABAMA

CITY           SKY/WX    TMP DP  RH WIND       PRES   REMARKS
DOTHAN         CLOUDY    71  66  84 NE6       29.97S
OZARK          CLOUDY    72  65  79 N8        29.93F
TROY           CLOUDY    75  65  70 NE7       29.95S
EUFAULA        CLOUDY    76  65  68 NE6       29.93S
$$


USA.gov is the U.S. government's official web portal to all federal, state and local government web resources and services.